GFSMW_prec_pwat_102.txt.gz
Precipitable_Water
0.63 0.89 0.92 0.90 0.91 0.85 0.81 0.95 1.08 1.17 1.25 1.22 1.19 1.21 1.23 1.35 1.49 1.56 1.54 1.53 1.55 1.54 1.43 1.32 1.33 1.39 1.34 1.31 1.28 1.15 1.06 1.00 1.00 0.95 0.91 0.94 0.97 0.98 1.00 0.99 0.99 0.98 0.92
0.65 0.83 0.89 0.87 0.87 0.77 0.81 0.91 1.09 1.13 1.17 1.18 1.22 1.26 1.29 1.34 1.45 1.56 1.53 1.54 1.57 1.53 1.43 1.32 1.26 1.26 1.28 1.35 1.20 1.13 1.04 1.05 1.07 0.96 0.91 0.83 0.90 0.96 0.97 0.98 0.97 0.98 0.95
0.61 0.77 0.83 0.83 0.84 0.73 0.79 0.88 1.00 1.13 1.18 1.21 1.25 1.28 1.34 1.42 1.42 1.44 1.49 1.52 1.55 1.52 1.43 1.32 1.24 1.21 1.20 1.23 1.18 1.13 1.08 1.04 1.08 1.06 0.93 0.84 0.79 0.85 0.92 0.93 0.95 0.96 0.99
0.50 0.73 0.79 0.81 0.79 0.73 0.81 0.90 0.96 1.04 1.15 1.21 1.20 1.22 1.26 1.28 1.41 1.44 1.46 1.51 1.54 1.52 1.46 1.37 1.31 1.21 1.25 1.22 1.19 1.19 1.15 1.13 1.00 1.05 1.06 1.03 1.01 0.85 0.78 0.91 0.94 0.96 0.91
0.53 0.69 0.75 0.79 0.80 0.77 0.76 0.87 0.93 0.98 1.05 1.13 1.21 1.26 1.27 1.32 1.41 1.46 1.48 1.47 1.52 1.51 1.45 1.41 1.33 1.26 1.29 1.25 1.23 1.20 1.15 1.13 1.11 1.05 1.00 0.99 0.97 0.96 0.86 0.78 0.82 0.92 0.93
0.54 0.68 0.78 0.80 0.76 0.80 0.75 0.82 0.87 0.89 0.98 1.08 1.14 1.22 1.26 1.31 1.29 1.38 1.39 1.40 1.45 1.46 1.42 1.37 1.30 1.35 1.32 1.30 1.24 1.23 1.14 1.14 1.15 1.08 1.01 0.94 0.89 0.84 0.81 0.79 0.84 0.88 0.95
0.61 0.65 0.72 0.73 0.74 0.73 0.69 0.75 0.81 0.79 0.89 1.00 1.08 1.16 1.24 1.29 1.28 1.29 1.31 1.34 1.35 1.36 1.35 1.30 1.30 1.32 1.33 1.28 1.23 1.16 1.19 1.16 1.09 1.07 1.07 1.05 0.98 0.98 0.90 0.86 0.85 0.87 0.96
0.64 0.65 0.71 0.77 0.74 0.71 0.68 0.72 0.77 0.77 0.84 0.91 1.00 1.11 1.16 1.27 1.32 1.31 1.31 1.30 1.29 1.29 1.33 1.31 1.32 1.31 1.30 1.24 1.18 1.28 1.21 1.13 1.07 1.04 1.05 1.06 1.07 1.04 1.01 0.94 0.93 0.85 0.89
0.66 0.67 0.75 0.79 0.75 0.71 0.68 0.70 0.75 0.79 0.82 0.87 0.93 1.01 1.10 1.13 1.19 1.29 1.29 1.30 1.34 1.36 1.34 1.31 1.27 1.27 1.24 1.16 1.25 1.20 1.14 1.10 1.07 1.02 1.03 1.06 1.12 1.13 1.11 1.09 1.04 0.92 0.78
0.64 0.69 0.77 0.81 0.79 0.78 0.75 0.73 0.76 0.76 0.82 0.90 0.92 0.94 0.96 1.02 1.06 1.15 1.12 1.13 1.18 1.24 1.27 1.23 1.20 1.17 1.18 1.20 1.11 1.07 1.07 1.05 1.05 1.06 1.04 1.06 1.09 1.10 1.14 1.15 1.14 1.11 0.98
0.62 0.70 0.75 0.83 0.83 0.81 0.81 0.74 0.75 0.77 0.80 0.88 0.91 0.92 0.94 0.97 0.96 0.98 1.04 1.06 1.08 1.08 1.12 1.12 1.12 1.12 1.10 1.09 1.04 1.04 1.01 0.96 0.97 1.01 1.03 1.04 1.12 1.15 1.14 1.16 1.17 1.13 1.08
0.64 0.72 0.76 0.82 0.83 0.78 0.83 0.78 0.78 0.79 0.82 0.85 0.89 0.90 0.94 0.97 0.97 0.99 0.96 0.98 1.03 1.09 1.09 1.09 1.06 1.04 1.03 1.03 1.01 0.99 1.00 1.03 1.04 1.04 1.08 1.07 1.12 1.13 1.16 1.18 1.14 1.12 1.14
0.60 0.71 0.76 0.81 0.83 0.80 0.81 0.84 0.81 0.83 0.87 0.89 0.87 0.87 0.87 0.92 0.96 1.02 1.07 1.09 1.11 1.13 1.12 1.11 1.06 1.03 1.04 1.03 1.05 1.06 1.05 1.05 1.08 1.11 1.10 1.09 1.12 1.13 1.18 1.19 1.17 1.18 1.18
0.66 0.71 0.77 0.82 0.85 0.85 0.83 0.87 0.85 0.87 0.90 0.90 0.88 0.86 0.86 0.90 0.93 0.97 1.00 1.03 1.06 1.07 1.10 1.09 1.09 1.09 1.08 1.08 1.07 1.07 1.08 1.10 1.13 1.14 1.13 1.13 1.11 1.09 1.07 1.09 1.13 1.07 1.10
0.62 0.68 0.75 0.82 0.86 0.89 0.88 0.90 0.90 0.90 0.90 0.88 0.89 0.88 0.91 0.93 0.95 0.97 0.99 1.00 1.02 1.02 1.04 1.04 1.10 1.13 1.12 1.11 1.13 1.15 1.15 1.07 1.02 1.04 1.05 1.05 1.06 1.04 1.08 1.00 1.05 0.97 0.92
0.55 0.62 0.72 0.76 0.84 0.88 0.90 0.91 0.89 0.88 0.89 0.85 0.85 0.90 0.93 0.93 0.97 1.00 0.99 0.98 0.97 0.98 1.00 0.98 0.97 0.95 0.95 0.93 0.97 0.99 0.99 1.01 1.02 1.01 1.02 1.01 0.99 0.98 0.95 0.95 0.86 0.86 0.89
0.54 0.55 0.62 0.75 0.82 0.87 0.90 0.87 0.90 0.92 0.88 0.83 0.86 0.89 0.90 0.92 0.95 0.98 0.98 0.98 0.97 0.95 0.94 0.95 0.95 0.93 0.93 0.95 1.01 1.05 1.04 1.01 0.99 0.99 0.98 0.95 0.93 0.89 0.81 0.80 0.83 0.76 0.78
0.52 0.56 0.63 0.70 0.81 0.92 0.90 0.92 0.93 0.93 0.91 0.88 0.89 0.93 0.94 0.94 0.95 0.94 0.90 0.93 0.93 0.93 0.93 0.92 0.93 0.93 0.93 0.95 1.00 1.04 1.03 0.99 0.95 0.91 0.91 0.87 0.84 0.83 0.81 0.75 0.77 0.74 0.71
0.58 0.65 0.69 0.69 0.77 0.90 0.96 0.94 0.96 0.97 0.96 0.93 0.95 0.97 0.99 0.91 0.90 0.88 0.87 0.89 0.91 0.92 0.93 0.92 0.91 0.90 0.90 0.94 0.95 0.94 0.90 0.87 0.85 0.88 0.85 0.82 0.79 0.75 0.76 0.73 0.70 0.64 0.62
0.77 0.75 0.74 0.76 0.77 0.86 0.99 0.96 0.98 0.99 0.94 0.91 0.92 0.91 0.94 0.93 0.91 0.92 0.89 0.90 0.91 0.92 0.91 0.88 0.87 0.85 0.85 0.87 0.89 0.89 0.85 0.84 0.84 0.82 0.77 0.73 0.73 0.70 0.68 0.61 0.56 0.52 0.53
0.76 0.80 0.80 0.73 0.77 0.82 0.91 0.87 0.90 0.88 0.96 0.98 0.97 0.96 0.95 0.96 0.95 0.94 0.94 0.92 0.90 0.88 0.83 0.79 0.77 0.79 0.80 0.82 0.84 0.85 0.82 0.76 0.70 0.69 0.66 0.64 0.61 0.59 0.55 0.51 0.49 0.48 0.48
0.72 0.73 0.70 0.71 0.75 0.80 0.82 0.82 0.83 0.87 0.92 0.97 0.96 0.95 0.98 0.98 0.97 0.95 0.93 0.90 0.87 0.80 0.76 0.75 0.75 0.77 0.78 0.76 0.73 0.71 0.69 0.66 0.61 0.59 0.58 0.55 0.53 0.50 0.46 0.41 0.38 0.36 0.32
0.68 0.70 0.65 0.65 0.70 0.75 0.79 0.78 0.81 0.86 0.89 0.91 0.90 0.91 0.92 0.90 0.91 0.88 0.88 0.82 0.80 0.77 0.74 0.73 0.72 0.71 0.71 0.68 0.65 0.64 0.62 0.58 0.54 0.51 0.48 0.43 0.39 0.37 0.33 0.31 0.30 0.28 0.26
0.64 0.65 0.63 0.61 0.62 0.68 0.72 0.76 0.78 0.82 0.85 0.86 0.84 0.83 0.82 0.83 0.83 0.82 0.82 0.77 0.75 0.73 0.72 0.69 0.68 0.67 0.63 0.60 0.56 0.52 0.49 0.46 0.44 0.40 0.34 0.29 0.26 0.26 0.25 0.24 0.23 0.22 0.19
0.72 0.70 0.68 0.65 0.63 0.65 0.67 0.71 0.76 0.79 0.78 0.80 0.81 0.82 0.84 0.82 0.80 0.77 0.74 0.73 0.73 0.72 0.69 0.68 0.64 0.57 0.53 0.51 0.48 0.42 0.35 0.31 0.29 0.28 0.26 0.23 0.21 0.20 0.18 0.17 0.16 0.15 0.13
0.73 0.72 0.71 0.70 0.70 0.71 0.73 0.74 0.78 0.81 0.82 0.81 0.81 0.80 0.77 0.77 0.74 0.71 0.69 0.71 0.69 0.68 0.65 0.61 0.57 0.52 0.46 0.39 0.33 0.27 0.25 0.24 0.25 0.23 0.21 0.19 0.17 0.15 0.14 0.13 0.12 0.12 0.11

GFSMW_prec_pwat_108.txt.gz
Precipitable_Water
0.54 0.69 0.77 0.87 0.94 1.01 1.00 0.96 0.83 0.83 0.94 1.13 1.18 1.24 1.23 1.28 1.42 1.48 1.54 1.55 1.60 1.56 1.45 1.28 1.09 1.06 0.98 0.90 0.99 1.03 1.01 1.04 1.05 0.96 1.00 0.99 1.06 1.07 1.09 1.14 1.11 1.06 1.06
0.59 0.67 0.79 0.86 0.92 0.97 0.99 0.94 0.78 0.82 0.92 1.09 1.19 1.24 1.30 1.32 1.32 1.40 1.47 1.53 1.56 1.54 1.44 1.35 1.16 1.10 1.10 1.04 1.06 1.05 1.03 1.05 1.09 0.94 0.92 0.83 0.91 1.03 1.08 1.13 1.11 1.10 1.11
0.59 0.65 0.74 0.80 0.92 0.97 0.96 0.86 0.78 0.80 0.89 1.04 1.16 1.20 1.28 1.36 1.34 1.36 1.41 1.47 1.48 1.51 1.49 1.44 1.34 1.24 1.18 1.17 1.10 1.12 1.06 1.00 1.08 1.05 0.91 0.79 0.75 0.86 1.00 1.05 1.09 1.10 1.08
0.64 0.67 0.75 0.79 0.88 0.96 0.98 0.83 0.80 0.78 0.87 1.00 1.03 1.06 1.08 1.11 1.28 1.35 1.41 1.47 1.51 1.48 1.46 1.45 1.45 1.42 1.30 1.21 1.19 1.22 1.15 1.09 1.01 1.03 1.01 0.99 0.95 0.86 0.81 0.98 1.01 1.07 1.06
0.59 0.67 0.69 0.77 0.89 0.97 0.90 0.80 0.80 0.78 0.85 0.92 0.98 1.02 1.04 1.15 1.24 1.33 1.41 1.47 1.51 1.52 1.47 1.45 1.45 1.47 1.37 1.29 1.29 1.25 1.22 1.19 1.17 1.03 1.00 1.01 1.03 1.01 0.88 0.83 0.88 0.96 0.98
0.56 0.67 0.76 0.83 0.91 0.96 0.90 0.80 0.76 0.75 0.82 0.87 0.93 0.98 1.05 1.11 1.18 1.25 1.30 1.41 1.46 1.50 1.49 1.45 1.44 1.48 1.39 1.32 1.33 1.33 1.28 1.28 1.19 1.12 1.08 1.05 0.97 0.96 0.96 0.91 0.91 0.89 0.93
0.55 0.67 0.72 0.79 0.87 0.87 0.85 0.75 0.71 0.69 0.78 0.83 0.89 0.97 1.06 1.18 1.22 1.29 1.35 1.35 1.41 1.44 1.44 1.47 1.46 1.46 1.47 1.41 1.42 1.40 1.37 1.33 1.26 1.19 1.14 1.13 1.08 1.03 1.04 0.97 0.90 0.87 0.93
0.57 0.66 0.70 0.79 0.85 0.88 0.84 0.71 0.67 0.67 0.75 0.80 0.86 0.98 1.08 1.20 1.27 1.34 1.38 1.41 1.41 1.45 1.48 1.47 1.46 1.46 1.47 1.46 1.43 1.41 1.37 1.32 1.25 1.22 1.17 1.17 1.12 1.10 1.03 0.98 0.91 0.83 0.87
0.65 0.69 0.75 0.84 0.88 0.90 0.83 0.71 0.65 0.67 0.73 0.78 0.86 0.94 1.01 1.15 1.23 1.32 1.37 1.43 1.45 1.46 1.45 1.45 1.44 1.44 1.43 1.39 1.38 1.34 1.30 1.29 1.24 1.19 1.17 1.14 1.15 1.15 1.13 1.08 1.04 0.95 0.81
0.83 0.83 0.82 0.86 0.92 0.93 0.82 0.73 0.68 0.67 0.72 0.79 0.86 0.92 0.98 1.05 1.20 1.28 1.30 1.37 1.42 1.42 1.43 1.42 1.41 1.40 1.40 1.36 1.33 1.28 1.27 1.23 1.21 1.18 1.16 1.14 1.16 1.16 1.16 1.11 1.08 1.04 0.94
0.76 0.92 0.94 0.90 0.89 0.88 0.84 0.70 0.67 0.68 0.71 0.78 0.85 0.91 0.96 1.01 1.05 1.10 1.18 1.27 1.36 1.40 1.40 1.39 1.40 1.38 1.35 1.34 1.29 1.26 1.25 1.21 1.18 1.15 1.11 1.08 1.10 1.10 1.08 1.07 1.04 1.02 1.05
0.77 0.91 0.99 1.01 0.88 0.85 0.85 0.70 0.67 0.68 0.71 0.77 0.83 0.89 0.94 0.99 0.99 1.01 1.05 1.13 1.20 1.28 1.30 1.33 1.35 1.34 1.29 1.28 1.25 1.21 1.21 1.15 1.10 1.09 1.08 1.04 1.08 1.06 1.05 1.06 1.04 1.08 1.13
0.73 0.78 1.00 1.01 1.03 0.88 0.87 0.77 0.66 0.68 0.71 0.77 0.82 0.86 0.89 0.92 0.94 1.01 1.07 1.09 1.08 1.12 1.18 1.20 1.21 1.22 1.21 1.19 1.17 1.16 1.11 1.10 1.06 1.04 1.02 1.04 1.05 1.03 1.06 1.07 1.08 1.10 1.10
0.74 0.74 0.92 1.04 1.09 1.05 0.92 0.84 0.75 0.71 0.74 0.78 0.83 0.84 0.88 0.89 0.91 0.96 1.03 1.09 1.10 1.10 1.11 1.11 1.09 1.10 1.11 1.09 1.07 1.06 1.05 1.07 1.07 1.06 1.05 1.05 1.05 1.05 1.04 1.00 0.99 0.98 0.95
0.73 0.74 0.85 0.94 1.10 1.08 1.07 1.00 0.88 0.78 0.77 0.78 0.80 0.84 0.89 0.90 0.92 0.92 0.96 1.03 1.06 1.06 1.07 1.08 1.11 1.14 1.11 1.12 1.11 1.09 1.09 1.07 1.05 1.06 1.04 1.00 0.97 0.96 0.94 0.89 0.87 0.88 0.87
0.81 0.79 0.80 0.90 1.01 1.06 1.08 1.12 1.05 0.91 0.85 0.82 0.83 0.87 0.89 0.90 0.90 0.92 0.92 0.95 0.98 1.00 1.00 1.01 1.01 0.99 1.00 1.05 1.12 1.14 1.10 1.05 1.00 0.97 0.96 0.94 0.89 0.87 0.88 0.95 0.92 0.91 0.81
0.76 0.80 0.83 0.82 0.85 0.93 0.98 1.08 1.14 1.13 0.99 0.88 0.90 0.90 0.90 0.90 0.93 0.95 0.96 0.93 0.89 0.91 0.88 0.89 0.91 0.91 0.94 0.99 1.01 1.03 0.99 0.95 0.93 0.91 0.87 0.85 0.86 0.86 0.86 0.84 0.85 0.86 0.84
0.73 0.77 0.80 0.81 0.83 0.87 0.98 1.08 1.16 1.19 1.15 1.03 0.95 0.96 0.95 0.92 0.95 0.97 0.93 0.92 0.91 0.87 0.87 0.89 0.90 0.91 0.91 0.95 0.98 1.00 0.96 0.92 0.88 0.86 0.87 0.83 0.83 0.80 0.84 0.82 0.78 0.80 0.80
0.70 0.74 0.79 0.83 0.84 0.89 1.00 1.00 1.07 1.18 1.16 1.13 1.10 1.05 1.03 0.97 0.94 0.91 0.90 0.91 0.90 0.88 0.88 0.89 0.88 0.88 0.87 0.90 0.94 0.95 0.91 0.89 0.85 0.83 0.83 0.80 0.78 0.83 0.80 0.75 0.71 0.65 0.59
0.65 0.70 0.75 0.80 0.82 0.93 1.03 1.06 1.03 0.97 1.05 1.09 1.10 1.13 1.07 1.01 0.98 0.96 0.93 0.92 0.93 0.91 0.91 0.91 0.92 0.92 0.91 0.91 0.94 0.93 0.89 0.84 0.79 0.78 0.76 0.74 0.76 0.75 0.72 0.66 0.56 0.45 0.42
0.64 0.66 0.67 0.75 0.80 0.89 0.98 0.99 1.01 0.94 1.04 1.10 1.11 1.13 1.10 1.06 1.05 1.00 0.97 0.98 0.96 0.94 0.91 0.89 0.90 0.90 0.90 0.89 0.87 0.87 0.85 0.82 0.77 0.72 0.74 0.73 0.70 0.62 0.52 0.46 0.41 0.37 0.34
0.61 0.61 0.59 0.67 0.76 0.83 0.91 0.91 0.95 1.01 1.08 1.09 1.07 1.07 1.07 1.07 1.04 1.00 0.96 0.95 0.94 0.91 0.90 0.88 0.88 0.88 0.85 0.83 0.82 0.81 0.83 0.80 0.73 0.69 0.67 0.63 0.54 0.47 0.44 0.41 0.37 0.31 0.27
0.61 0.62 0.60 0.60 0.69 0.78 0.82 0.85 0.92 0.97 0.99 1.01 0.99 1.01 1.03 1.04 1.02 1.00 0.99 0.95 0.94 0.90 0.88 0.84 0.81 0.78 0.78 0.78 0.75 0.76 0.74 0.71 0.67 0.62 0.56 0.52 0.47 0.41 0.34 0.31 0.29 0.27 0.24
0.61 0.61 0.63 0.59 0.60 0.68 0.76 0.78 0.83 0.88 0.89 0.87 0.85 0.86 0.87 0.90 0.90 0.91 0.89 0.85 0.84 0.81 0.79 0.75 0.74 0.73 0.70 0.70 0.70 0.68 0.62 0.60 0.55 0.49 0.45 0.40 0.36 0.33 0.31 0.29 0.27 0.24 0.19
0.60 0.61 0.61 0.62 0.62 0.64 0.67 0.73 0.75 0.76 0.75 0.77 0.78 0.77 0.77 0.79 0.80 0.82 0.83 0.81 0.80 0.76 0.73 0.71 0.66 0.66 0.62 0.63 0.65 0.60 0.52 0.46 0.43 0.41 0.38 0.33 0.30 0.29 0.26 0.21 0.17 0.16 0.14
0.56 0.58 0.62 0.63 0.64 0.68 0.64 0.64 0.66 0.66 0.65 0.64 0.65 0.64 0.65 0.69 0.70 0.73 0.71 0.72 0.70 0.69 0.71 0.69 0.67 0.65 0.64 0.60 0.50 0.45 0.42 0.41 0.36 0.31 0.29 0.26 0.21 0.18 0.16 0.14 0.13 0.12 0.11

GFSMW_prec_pwat_111.txt.gz
Precipitable_Water
0.47 0.55 0.64 0.73 0.86 0.92 1.00 1.05 1.07 1.07 0.93 0.86 0.93 1.10 1.12 1.27 1.30 1.48 1.54 1.52 1.58 1.55 1.48 1.35 1.29 1.20 0.77 0.72 0.74 0.75 0.82 0.90 0.99 0.98 1.03 1.03 1.07 1.06 1.05 1.09 1.05 1.04 1.04
0.48 0.59 0.67 0.76 0.77 0.91 1.00 1.03 1.06 1.03 0.87 0.87 0.96 1.10 1.19 1.27 1.32 1.41 1.45 1.51 1.52 1.51 1.47 1.36 1.31 1.17 0.79 0.73 0.77 0.78 0.81 0.89 0.99 0.90 0.90 0.83 0.92 1.05 1.12 1.14 1.08 1.08 1.11
0.50 0.58 0.67 0.77 0.83 0.88 0.94 1.00 1.04 1.00 0.87 0.91 0.96 1.05 1.22 1.24 1.26 1.29 1.41 1.51 1.55 1.52 1.48 1.39 1.30 1.21 0.88 0.80 0.82 0.83 0.85 0.82 0.94 0.97 0.88 0.77 0.74 0.86 1.03 1.06 1.11 1.11 1.12
0.52 0.59 0.68 0.75 0.78 0.89 0.99 1.05 1.04 0.95 0.85 0.93 0.91 0.93 0.99 1.04 1.21 1.30 1.35 1.44 1.52 1.50 1.53 1.47 1.35 1.27 1.00 0.92 0.91 0.94 0.92 0.93 0.92 1.02 1.03 0.95 0.93 0.79 0.78 0.98 1.05 1.09 1.08
0.54 0.59 0.66 0.71 0.83 0.97 0.98 1.05 1.03 0.89 0.85 0.88 0.92 0.92 0.94 1.09 1.22 1.30 1.34 1.42 1.45 1.51 1.51 1.48 1.40 1.30 1.12 1.08 1.07 1.09 1.08 1.06 1.01 0.99 1.01 0.99 0.97 0.96 0.87 0.82 0.88 0.98 1.03
0.63 0.64 0.69 0.79 0.83 0.98 1.06 1.04 0.99 0.82 0.83 0.85 0.88 0.88 0.89 0.99 1.08 1.22 1.28 1.34 1.42 1.46 1.50 1.52 1.48 1.42 1.30 1.17 1.18 1.19 1.20 1.14 1.12 1.10 1.07 0.99 0.92 0.93 0.92 0.89 0.89 0.89 0.96
0.68 0.66 0.65 0.71 0.77 0.88 1.03 1.03 0.94 0.74 0.79 0.82 0.84 0.86 0.89 0.96 1.04 1.15 1.22 1.29 1.37 1.42 1.44 1.47 1.47 1.45 1.42 1.33 1.27 1.22 1.22 1.22 1.20 1.16 1.12 1.09 1.04 1.05 1.04 0.98 0.92 0.92 1.01
0.73 0.77 0.71 0.72 0.76 0.86 0.99 1.02 0.89 0.72 0.76 0.77 0.80 0.85 0.93 0.99 1.09 1.21 1.26 1.30 1.35 1.42 1.51 1.48 1.49 1.49 1.45 1.42 1.40 1.33 1.28 1.29 1.27 1.23 1.22 1.16 1.15 1.16 1.12 1.02 0.96 0.92 0.94
0.75 0.75 0.85 0.85 0.83 0.85 0.97 1.01 0.88 0.74 0.73 0.76 0.79 0.83 0.93 1.01 1.12 1.26 1.33 1.37 1.44 1.46 1.47 1.48 1.47 1.49 1.47 1.45 1.44 1.36 1.34 1.33 1.34 1.30 1.26 1.21 1.19 1.20 1.18 1.16 1.08 0.98 0.87
0.73 0.76 0.93 0.94 0.93 0.96 1.06 1.05 0.88 0.74 0.72 0.76 0.79 0.85 0.93 1.02 1.13 1.23 1.30 1.36 1.43 1.44 1.41 1.45 1.43 1.46 1.46 1.44 1.42 1.38 1.36 1.33 1.34 1.32 1.26 1.21 1.20 1.20 1.18 1.17 1.17 1.13 1.04
0.78 0.79 0.83 1.02 0.99 1.04 1.12 1.04 0.85 0.75 0.71 0.74 0.78 0.84 0.90 0.97 1.04 1.14 1.20 1.31 1.39 1.42 1.40 1.43 1.40 1.44 1.40 1.43 1.40 1.38 1.32 1.28 1.28 1.28 1.21 1.19 1.20 1.15 1.17 1.19 1.16 1.13 1.10
0.83 0.81 0.80 1.03 1.03 1.08 1.14 1.06 0.81 0.73 0.73 0.76 0.78 0.82 0.90 0.93 0.96 0.99 1.08 1.21 1.30 1.39 1.39 1.39 1.39 1.37 1.40 1.40 1.37 1.32 1.30 1.26 1.20 1.20 1.19 1.16 1.18 1.15 1.16 1.14 1.10 1.10 1.08
0.81 0.82 0.82 0.97 1.06 1.09 1.09 1.02 0.89 0.78 0.75 0.76 0.78 0.82 0.86 0.89 0.93 0.98 1.01 1.07 1.15 1.23 1.29 1.31 1.32 1.33 1.34 1.35 1.32 1.32 1.23 1.21 1.23 1.22 1.18 1.15 1.13 1.09 1.08 1.06 1.06 1.04 1.06
0.82 0.88 0.85 0.93 1.05 1.11 1.10 1.06 0.93 0.85 0.82 0.77 0.77 0.80 0.84 0.87 0.92 0.97 1.01 1.06 1.08 1.08 1.14 1.20 1.27 1.29 1.29 1.32 1.29 1.26 1.24 1.22 1.18 1.16 1.12 1.06 1.01 1.00 1.01 1.01 1.02 1.04 1.01
0.86 0.91 0.87 0.95 1.05 1.10 1.11 1.11 1.03 0.89 0.85 0.82 0.80 0.82 0.87 0.90 0.93 0.95 0.99 1.04 1.08 1.10 1.14 1.11 1.12 1.16 1.19 1.22 1.22 1.17 1.13 1.07 1.02 1.01 1.00 0.99 1.00 1.01 1.02 0.99 0.94 0.91 0.85
0.84 0.88 0.91 0.91 0.97 1.08 1.14 1.14 1.07 1.00 0.88 0.84 0.85 0.89 0.91 0.90 0.90 0.93 0.95 0.98 1.01 1.03 1.05 1.03 1.06 1.06 1.10 1.12 1.13 1.09 1.03 1.01 0.98 0.95 0.95 0.94 0.93 0.94 0.94 0.91 0.86 0.83 0.81
0.77 0.80 0.87 0.88 0.93 0.99 1.11 1.13 1.14 1.14 1.00 0.86 0.89 0.92 0.94 0.94 0.91 0.92 0.93 0.94 0.93 0.94 0.92 0.91 0.93 0.94 0.96 1.00 1.01 1.02 1.01 0.98 0.95 0.92 0.88 0.86 0.84 0.83 0.84 0.77 0.79 0.81 0.84
0.77 0.78 0.77 0.90 0.92 1.00 1.04 1.12 1.19 1.17 1.14 1.07 0.95 0.96 0.96 0.96 0.97 0.94 0.90 0.89 0.90 0.89 0.87 0.85 0.85 0.86 0.88 0.94 0.99 0.99 0.94 0.91 0.88 0.87 0.84 0.84 0.82 0.78 0.78 0.80 0.76 0.75 0.78
0.75 0.76 0.73 0.80 0.91 0.94 0.99 1.05 1.13 1.20 1.17 1.11 1.14 1.09 1.05 0.99 0.95 0.93 0.89 0.88 0.88 0.88 0.87 0.85 0.83 0.85 0.86 0.91 0.95 0.98 0.91 0.87 0.85 0.85 0.82 0.79 0.78 0.76 0.77 0.76 0.72 0.68 0.68
0.71 0.70 0.71 0.73 0.78 0.92 1.03 1.06 1.07 1.12 1.12 1.08 1.14 1.21 1.17 1.09 1.01 0.96 0.94 0.92 0.91 0.90 0.89 0.86 0.86 0.87 0.88 0.90 0.92 0.93 0.91 0.85 0.83 0.82 0.80 0.77 0.78 0.75 0.70 0.65 0.61 0.55 0.51
0.68 0.69 0.70 0.66 0.67 0.83 0.95 0.99 1.03 1.01 1.06 1.07 1.13 1.16 1.17 1.15 1.13 1.05 1.00 0.96 0.92 0.90 0.89 0.87 0.87 0.87 0.87 0.87 0.88 0.88 0.86 0.83 0.79 0.76 0.74 0.75 0.74 0.69 0.64 0.59 0.51 0.45 0.40
0.64 0.66 0.65 0.63 0.66 0.72 0.83 0.89 0.98 1.07 1.09 1.07 1.07 1.08 1.13 1.13 1.12 1.08 1.03 0.98 0.94 0.89 0.86 0.86 0.84 0.85 0.86 0.85 0.85 0.84 0.83 0.80 0.75 0.71 0.69 0.67 0.62 0.60 0.53 0.48 0.42 0.38 0.37
0.57 0.60 0.61 0.62 0.63 0.64 0.72 0.76 0.84 0.97 1.03 1.01 1.06 1.07 1.06 1.06 1.05 1.03 1.00 0.97 0.93 0.88 0.85 0.83 0.81 0.81 0.82 0.82 0.80 0.81 0.78 0.75 0.69 0.68 0.64 0.60 0.52 0.46 0.43 0.43 0.41 0.36 0.32
0.53 0.55 0.59 0.60 0.59 0.62 0.62 0.72 0.78 0.83 0.92 0.96 0.90 0.91 0.92 0.92 0.90 0.89 0.90 0.90 0.90 0.84 0.81 0.81 0.81 0.79 0.78 0.76 0.76 0.72 0.70 0.68 0.65 0.55 0.52 0.48 0.46 0.41 0.38 0.34 0.30 0.27 0.24
0.53 0.54 0.56 0.56 0.58 0.61 0.62 0.63 0.72 0.77 0.78 0.79 0.81 0.82 0.82 0.82 0.81 0.82 0.81 0.81 0.80 0.78 0.75 0.71 0.71 0.68 0.67 0.65 0.68 0.67 0.61 0.57 0.52 0.51 0.46 0.40 0.37 0.32 0.28 0.26 0.23 0.19 0.17
0.52 0.54 0.56 0.56 0.57 0.61 0.63 0.61 0.64 0.68 0.71 0.72 0.73 0.73 0.73 0.72 0.72 0.73 0.71 0.73 0.74 0.70 0.68 0.67 0.71 0.67 0.64 0.64 0.61 0.57 0.53 0.49 0.45 0.40 0.34 0.29 0.26 0.24 0.22 0.19 0.17 0.16 0.15

GFSMW_prec_pwat_114.txt.gz
Precipitable_Water
0.22 0.28 0.37 0.50 0.63 0.73 0.82 0.85 0.92 1.07 1.08 1.12 1.04 0.86 0.90 1.11 1.25 1.37 1.39 1.46 1.54 1.54 1.59 1.53 1.49 1.35 1.31 0.89 0.88 1.00 0.98 0.97 0.99 0.92 0.97 1.03 1.06 1.03 1.04 1.05 1.02 1.01 1.02
0.23 0.26 0.37 0.54 0.65 0.73 0.83 0.88 0.95 1.03 1.09 1.14 1.05 0.92 0.97 1.10 1.27 1.32 1.38 1.44 1.53 1.52 1.50 1.48 1.47 1.32 1.26 0.95 0.86 0.95 0.95 0.94 0.93 0.87 0.88 0.87 0.95 1.00 1.03 1.05 1.04 1.03 1.08
0.26 0.27 0.37 0.53 0.66 0.74 0.83 0.89 0.97 1.01 1.11 1.17 1.03 0.95 1.00 1.07 1.17 1.24 1.26 1.36 1.54 1.52 1.53 1.52 1.49 1.36 1.17 0.89 0.70 0.77 0.80 0.78 0.92 0.93 0.83 0.78 0.82 0.87 0.98 1.01 1.07 1.13 1.12
0.40 0.39 0.39 0.51 0.63 0.76 0.90 0.97 1.03 1.03 1.14 1.17 0.96 0.86 0.84 0.85 1.07 1.18 1.28 1.31 1.44 1.52 1.50 1.46 1.38 1.28 1.21 0.92 0.74 0.81 0.81 0.81 0.83 0.91 0.98 0.96 0.91 0.78 0.76 0.95 1.04 1.12 1.13
0.43 0.48 0.53 0.59 0.70 0.81 0.88 0.97 1.04 1.08 1.15 1.15 0.96 0.87 0.85 0.93 1.08 1.19 1.27 1.32 1.39 1.47 1.50 1.44 1.40 1.30 1.28 1.07 0.76 0.76 0.78 0.86 0.85 0.84 0.88 0.88 0.88 0.89 0.81 0.75 0.89 1.05 1.07
0.45 0.52 0.62 0.69 0.73 0.86 0.88 0.96 1.01 1.07 1.16 1.14 0.96 0.86 0.84 0.90 0.96 1.10 1.15 1.30 1.40 1.43 1.46 1.45 1.38 1.32 1.26 1.18 0.86 0.81 0.82 0.89 0.93 0.94 0.94 0.89 0.86 0.84 0.84 0.81 0.88 0.89 0.96
0.49 0.56 0.62 0.75 0.84 0.87 0.88 0.94 1.01 1.01 1.13 1.10 0.92 0.86 0.88 0.91 0.98 1.04 1.14 1.23 1.32 1.38 1.40 1.43 1.41 1.39 1.34 1.30 1.12 0.93 0.92 0.93 0.97 0.99 0.96 1.04 1.03 1.01 0.99 0.96 0.95 0.91 0.98
0.55 0.59 0.67 0.72 0.91 0.92 0.90 0.94 0.98 1.02 1.08 1.05 0.84 0.85 0.89 0.91 0.97 1.06 1.16 1.26 1.31 1.36 1.43 1.44 1.43 1.42 1.37 1.36 1.31 1.13 1.02 1.04 1.05 1.06 1.11 1.12 1.13 1.13 1.08 1.02 0.96 0.89 0.93
0.47 0.57 0.67 0.74 0.89 0.97 0.94 0.95 0.99 1.05 1.08 1.01 0.83 0.83 0.87 0.89 0.93 1.04 1.16 1.26 1.35 1.40 1.43 1.49 1.47 1.44 1.41 1.40 1.34 1.26 1.14 1.15 1.19 1.21 1.22 1.20 1.20 1.21 1.15 1.12 1.08 0.99 0.86
0.44 0.52 0.65 0.76 0.85 0.98 1.00 1.00 1.04 1.10 1.12 0.95 0.81 0.84 0.86 0.92 0.98 1.08 1.16 1.26 1.33 1.38 1.42 1.46 1.47 1.51 1.46 1.44 1.42 1.35 1.25 1.20 1.24 1.26 1.26 1.26 1.23 1.20 1.20 1.20 1.16 1.14 1.03
0.46 0.58 0.65 0.82 0.90 1.01 1.03 0.99 1.04 1.13 1.11 0.90 0.81 0.84 0.87 0.94 1.00 1.06 1.11 1.19 1.31 1.39 1.43 1.45 1.44 1.44 1.42 1.45 1.42 1.38 1.34 1.26 1.23 1.25 1.24 1.23 1.27 1.23 1.19 1.19 1.18 1.13 1.11
0.52 0.69 0.77 0.91 0.97 1.03 1.04 1.01 1.07 1.15 1.08 0.88 0.83 0.86 0.92 0.96 0.97 1.01 1.05 1.10 1.20 1.33 1.36 1.41 1.41 1.41 1.42 1.45 1.38 1.36 1.37 1.32 1.25 1.25 1.24 1.23 1.24 1.20 1.21 1.20 1.16 1.13 1.15
0.54 0.71 0.87 0.95 1.03 1.07 1.06 1.06 1.11 1.16 1.00 0.86 0.84 0.86 0.91 0.95 0.96 0.99 1.02 1.06 1.11 1.22 1.27 1.34 1.36 1.38 1.39 1.37 1.41 1.39 1.36 1.33 1.27 1.27 1.24 1.21 1.22 1.17 1.17 1.17 1.13 1.13 1.12
0.64 0.78 0.89 0.96 1.01 1.10 1.11 1.11 1.15 1.18 0.94 0.85 0.86 0.84 0.90 0.95 0.99 1.02 1.02 1.03 1.10 1.11 1.15 1.24 1.28 1.33 1.37 1.36 1.37 1.35 1.33 1.28 1.25 1.22 1.19 1.19 1.18 1.16 1.14 1.12 1.07 1.04 0.98
0.64 0.77 0.85 0.87 0.97 1.03 1.14 1.15 1.18 1.14 0.95 0.84 0.85 0.84 0.91 0.97 1.00 1.02 1.02 1.03 1.05 1.08 1.12 1.13 1.20 1.27 1.27 1.31 1.33 1.32 1.24 1.24 1.18 1.16 1.16 1.15 1.14 1.11 1.07 1.01 0.98 0.96 0.94
0.64 0.76 0.83 0.86 0.96 0.96 1.08 1.17 1.14 1.12 0.99 0.86 0.85 0.87 0.90 0.94 0.96 1.00 1.01 1.01 1.02 1.03 1.05 1.07 1.09 1.11 1.16 1.23 1.27 1.26 1.20 1.18 1.12 1.05 1.01 0.99 0.98 0.98 0.97 0.95 0.94 0.92 0.89
0.68 0.79 0.81 0.85 0.93 1.00 1.07 1.11 1.15 1.19 1.03 0.92 0.87 0.88 0.90 0.92 0.93 0.97 0.99 0.98 0.97 0.98 0.95 0.97 1.00 1.02 1.07 1.11 1.13 1.12 1.07 1.01 0.98 0.95 0.92 0.89 0.88 0.88 0.87 0.86 0.86 0.83 0.82
0.68 0.74 0.80 0.83 0.87 1.00 1.06 1.15 1.16 1.17 1.11 0.98 0.91 0.91 0.92 0.91 0.96 0.96 0.93 0.92 0.96 0.94 0.91 0.90 0.91 0.93 0.94 0.98 1.01 1.00 0.96 0.92 0.89 0.88 0.87 0.84 0.81 0.81 0.80 0.77 0.75 0.74 0.71
0.69 0.73 0.78 0.77 0.85 0.92 1.03 1.08 1.10 1.16 1.13 1.10 1.03 0.96 0.94 0.92 0.93 0.93 0.93 0.93 0.92 0.92 0.90 0.91 0.89 0.88 0.87 0.90 0.92 0.94 0.87 0.84 0.83 0.82 0.82 0.81 0.79 0.77 0.77 0.74 0.70 0.67 0.65
0.70 0.72 0.76 0.78 0.79 0.84 0.99 1.02 1.09 1.13 1.13 1.15 1.14 1.13 1.11 1.00 0.94 0.93 0.93 0.94 0.92 0.90 0.90 0.88 0.88 0.86 0.84 0.86 0.88 0.90 0.87 0.82 0.79 0.79 0.78 0.79 0.79 0.77 0.75 0.71 0.65 0.59 0.60
0.68 0.69 0.70 0.70 0.72 0.79 0.86 0.98 1.06 1.08 1.14 1.20 1.18 1.14 1.14 1.11 1.08 1.00 0.98 0.95 0.91 0.88 0.85 0.84 0.84 0.84 0.83 0.84 0.87 0.88 0.86 0.82 0.79 0.76 0.75 0.74 0.73 0.71 0.67 0.62 0.57 0.52 0.50
0.62 0.63 0.64 0.64 0.68 0.70 0.74 0.86 0.96 1.08 1.14 1.17 1.14 1.11 1.09 1.08 1.08 1.08 1.03 0.98 0.93 0.88 0.84 0.82 0.80 0.81 0.82 0.84 0.84 0.85 0.85 0.83 0.78 0.74 0.72 0.70 0.68 0.66 0.62 0.55 0.50 0.48 0.47
0.54 0.56 0.56 0.57 0.62 0.66 0.66 0.71 0.87 1.00 1.00 1.06 1.06 1.06 1.06 1.04 1.05 1.03 1.02 0.98 0.94 0.92 0.87 0.84 0.81 0.79 0.80 0.80 0.80 0.79 0.79 0.76 0.75 0.73 0.70 0.68 0.62 0.56 0.51 0.50 0.47 0.40 0.35
0.51 0.53 0.50 0.52 0.56 0.62 0.64 0.65 0.74 0.87 0.92 0.94 1.00 0.97 0.98 0.99 0.98 0.96 0.95 0.94 0.91 0.86 0.87 0.83 0.80 0.81 0.79 0.79 0.77 0.74 0.75 0.72 0.69 0.68 0.62 0.56 0.53 0.51 0.46 0.40 0.35 0.31 0.28
0.52 0.53 0.49 0.49 0.53 0.58 0.60 0.63 0.65 0.74 0.79 0.83 0.85 0.91 0.91 0.87 0.84 0.86 0.85 0.83 0.82 0.82 0.78 0.76 0.74 0.74 0.72 0.71 0.69 0.66 0.67 0.65 0.62 0.59 0.53 0.50 0.43 0.37 0.33 0.31 0.27 0.24 0.21
0.54 0.53 0.53 0.53 0.54 0.55 0.57 0.60 0.62 0.64 0.67 0.71 0.76 0.80 0.80 0.79 0.80 0.80 0.78 0.79 0.79 0.76 0.76 0.77 0.71 0.72 0.68 0.67 0.66 0.66 0.63 0.60 0.54 0.46 0.38 0.34 0.32 0.29 0.24 0.22 0.20 0.19 0.17

GFSMW_prec_pwat_117.txt.gz
Precipitable_Water
0.24 0.27 0.30 0.33 0.34 0.43 0.53 0.70 0.78 0.87 0.95 1.01 1.03 1.10 1.09 1.09 0.94 1.04 1.20 1.32 1.40 1.47 1.56 1.60 1.52 1.55 1.48 1.40 1.32 1.02 0.88 0.94 1.05 1.02 1.02 1.05 1.08 1.05 1.02 1.02 0.95 0.96 0.97
0.26 0.33 0.38 0.37 0.41 0.46 0.63 0.79 0.84 0.90 0.98 1.06 1.10 1.13 1.17 1.02 0.97 1.10 1.23 1.34 1.41 1.47 1.54 1.55 1.52 1.50 1.44 1.41 1.27 0.96 0.91 0.94 1.01 0.93 0.90 0.81 0.92 0.99 1.02 1.01 1.01 0.99 1.02
0.35 0.37 0.36 0.41 0.48 0.54 0.66 0.78 0.88 0.97 1.06 1.12 1.15 1.16 1.18 0.98 0.92 1.03 1.17 1.31 1.38 1.46 1.52 1.54 1.51 1.49 1.47 1.35 1.23 0.96 0.91 0.82 1.01 1.03 0.87 0.76 0.74 0.87 1.00 0.98 1.02 1.03 1.04
0.42 0.43 0.42 0.40 0.54 0.60 0.74 0.82 0.93 1.00 1.08 1.14 1.10 1.10 0.99 0.80 0.88 1.00 1.15 1.25 1.33 1.42 1.51 1.51 1.51 1.48 1.45 1.32 1.23 0.94 0.91 0.89 0.92 1.00 1.00 0.93 0.88 0.79 0.82 1.00 1.02 1.07 1.07
0.45 0.46 0.47 0.51 0.59 0.67 0.74 0.84 0.96 1.02 1.09 1.09 1.09 1.10 0.98 0.89 0.95 1.02 1.09 1.19 1.28 1.39 1.42 1.49 1.46 1.47 1.43 1.29 1.23 0.94 0.98 1.02 0.98 0.95 0.87 0.87 0.89 0.90 0.84 0.79 0.86 1.00 1.07
0.44 0.45 0.53 0.58 0.61 0.79 0.79 0.87 0.94 1.02 1.12 1.13 1.12 1.07 0.98 0.86 0.86 0.96 1.02 1.13 1.25 1.36 1.43 1.47 1.48 1.45 1.36 1.26 1.24 1.01 0.89 0.89 0.91 0.90 0.87 0.83 0.79 0.79 0.82 0.80 0.85 0.88 0.99
0.41 0.43 0.45 0.53 0.62 0.72 0.85 0.88 0.94 0.98 1.10 1.13 1.15 1.11 1.00 0.88 0.87 0.94 1.01 1.11 1.20 1.29 1.37 1.41 1.41 1.42 1.43 1.31 1.24 1.03 0.86 0.83 0.82 0.84 0.85 0.88 0.88 0.88 0.87 0.87 0.85 0.87 0.97
0.42 0.43 0.46 0.52 0.60 0.71 0.84 0.92 0.95 0.99 1.07 1.13 1.17 1.17 1.04 0.87 0.91 0.97 1.04 1.14 1.25 1.34 1.40 1.41 1.40 1.41 1.40 1.35 1.32 1.17 0.93 0.86 0.86 0.85 0.90 0.92 0.95 0.96 0.94 0.95 0.92 0.89 0.93
0.43 0.48 0.52 0.56 0.60 0.67 0.79 0.96 0.99 1.01 1.05 1.14 1.19 1.17 1.04 0.88 0.90 0.97 1.09 1.19 1.29 1.37 1.45 1.43 1.42 1.38 1.32 1.30 1.25 1.27 1.12 0.93 0.86 0.86 0.92 1.00 1.05 1.08 1.07 1.09 1.10 0.96 0.86
0.44 0.47 0.56 0.62 0.67 0.74 0.84 1.00 1.05 1.02 1.03 1.14 1.19 1.15 0.97 0.90 0.94 0.99 1.04 1.16 1.27 1.38 1.42 1.43 1.46 1.40 1.35 1.31 1.26 1.25 1.28 1.13 0.95 0.92 0.96 1.05 1.13 1.15 1.15 1.18 1.16 1.12 1.02
0.45 0.47 0.53 0.63 0.67 0.78 0.93 1.05 1.08 1.04 1.02 1.12 1.17 1.13 0.89 0.88 0.92 0.96 1.04 1.12 1.19 1.27 1.32 1.39 1.43 1.42 1.41 1.41 1.39 1.35 1.32 1.24 1.16 1.06 1.05 1.12 1.19 1.18 1.20 1.23 1.20 1.13 1.11
0.48 0.51 0.55 0.58 0.66 0.73 0.94 1.09 1.11 1.05 1.05 1.15 1.16 1.07 0.85 0.86 0.91 0.97 1.04 1.10 1.11 1.20 1.31 1.34 1.36 1.43 1.44 1.42 1.40 1.35 1.34 1.29 1.22 1.17 1.15 1.15 1.19 1.16 1.18 1.21 1.17 1.17 1.17
0.44 0.50 0.52 0.55 0.67 0.74 0.91 1.10 1.12 1.09 1.10 1.15 1.16 0.92 0.80 0.83 0.91 0.98 1.03 1.06 1.09 1.17 1.24 1.29 1.31 1.36 1.41 1.39 1.40 1.41 1.34 1.35 1.33 1.27 1.22 1.19 1.18 1.15 1.19 1.21 1.15 1.17 1.17
0.40 0.48 0.53 0.62 0.73 0.81 0.94 1.06 1.12 1.13 1.17 1.17 1.11 0.88 0.80 0.84 0.93 0.99 1.02 1.03 1.07 1.11 1.19 1.23 1.28 1.33 1.39 1.41 1.39 1.37 1.37 1.37 1.35 1.32 1.30 1.22 1.21 1.20 1.19 1.16 1.16 1.15 1.10
0.43 0.49 0.56 0.71 0.80 0.84 0.97 1.07 1.12 1.16 1.21 1.20 1.04 0.90 0.83 0.89 0.95 0.98 1.01 1.02 1.04 1.09 1.13 1.16 1.22 1.26 1.33 1.37 1.35 1.31 1.30 1.29 1.25 1.23 1.21 1.20 1.21 1.20 1.19 1.15 1.11 1.09 1.04
0.51 0.57 0.65 0.75 0.80 0.87 0.95 1.05 1.08 1.17 1.24 1.20 1.04 0.92 0.84 0.89 0.94 0.97 1.00 1.01 1.01 1.04 1.06 1.06 1.12 1.18 1.20 1.25 1.31 1.29 1.25 1.21 1.17 1.15 1.14 1.13 1.12 1.11 1.10 1.08 1.06 1.01 0.94
0.55 0.58 0.66 0.74 0.78 0.86 0.95 1.03 1.09 1.14 1.21 1.19 1.05 0.92 0.85 0.89 0.93 0.97 0.99 0.98 0.97 0.99 0.98 1.00 1.02 1.03 1.10 1.17 1.17 1.20 1.21 1.14 1.14 1.13 1.09 1.05 1.04 1.01 0.96 0.93 0.90 0.88 0.85
0.57 0.63 0.69 0.72 0.78 0.86 0.94 1.03 1.11 1.14 1.16 1.16 1.05 0.94 0.87 0.89 0.95 0.96 0.94 0.95 0.97 0.95 0.93 0.94 0.95 0.96 0.97 1.04 1.08 1.11 1.09 1.07 1.02 0.99 0.96 0.91 0.88 0.86 0.85 0.83 0.81 0.78 0.77
0.61 0.66 0.71 0.73 0.78 0.81 0.88 0.97 1.06 1.12 1.14 1.15 1.08 0.96 0.90 0.90 0.94 0.92 0.92 0.93 0.93 0.92 0.91 0.91 0.90 0.90 0.89 0.92 0.96 0.96 0.91 0.87 0.84 0.84 0.82 0.82 0.81 0.80 0.80 0.78 0.75 0.72 0.70
0.64 0.68 0.69 0.71 0.73 0.76 0.82 0.90 1.00 1.03 1.13 1.15 1.14 1.06 0.95 0.93 0.93 0.95 0.94 0.93 0.93 0.92 0.90 0.89 0.90 0.89 0.88 0.89 0.90 0.91 0.86 0.80 0.77 0.77 0.77 0.78 0.78 0.76 0.74 0.73 0.68 0.66 0.62
0.64 0.69 0.66 0.65 0.67 0.72 0.77 0.87 0.95 0.96 1.06 1.17 1.21 1.12 1.06 1.01 0.98 0.95 0.94 0.93 0.91 0.91 0.89 0.87 0.87 0.88 0.87 0.85 0.86 0.85 0.83 0.81 0.77 0.75 0.74 0.75 0.75 0.73 0.70 0.67 0.60 0.56 0.58
0.62 0.63 0.61 0.60 0.63 0.69 0.71 0.75 0.84 0.96 1.00 1.11 1.14 1.11 1.08 1.06 1.04 1.02 0.97 0.92 0.91 0.88 0.86 0.83 0.80 0.81 0.84 0.84 0.83 0.82 0.81 0.79 0.78 0.75 0.73 0.72 0.69 0.67 0.64 0.60 0.60 0.59 0.55
0.59 0.58 0.54 0.54 0.58 0.64 0.69 0.70 0.82 0.91 0.95 1.02 1.04 1.08 1.06 1.02 1.03 1.01 0.98 0.94 0.94 0.89 0.85 0.83 0.79 0.76 0.79 0.80 0.81 0.81 0.80 0.78 0.75 0.73 0.71 0.69 0.65 0.62 0.61 0.59 0.54 0.47 0.44
0.57 0.55 0.52 0.52 0.50 0.59 0.65 0.69 0.73 0.82 0.92 0.91 0.94 0.99 1.00 0.98 0.98 0.95 0.96 0.95 0.93 0.89 0.88 0.87 0.82 0.77 0.75 0.75 0.79 0.77 0.76 0.75 0.73 0.71 0.68 0.65 0.61 0.59 0.55 0.48 0.43 0.38 0.34
0.56 0.54 0.50 0.50 0.50 0.55 0.60 0.67 0.70 0.75 0.80 0.85 0.89 0.88 0.93 0.92 0.93 0.94 0.91 0.90 0.90 0.89 0.86 0.83 0.81 0.77 0.78 0.73 0.72 0.73 0.72 0.70 0.68 0.65 0.61 0.58 0.53 0.46 0.41 0.37 0.34 0.30 0.27
0.52 0.50 0.50 0.50 0.50 0.51 0.55 0.60 0.66 0.69 0.73 0.77 0.80 0.83 0.85 0.86 0.85 0.82 0.80 0.81 0.81 0.83 0.80 0.79 0.76 0.74 0.75 0.71 0.69 0.67 0.68 0.65 0.62 0.57 0.49 0.42 0.39 0.36 0.33 0.30 0.26 0.24 0.22